Location: Bothwell
(41.7170°N, 112.2589°W)
Time: 01:54:11
(UTC+00:00)

STARLINK-37242 - Pass Details

Date: 19 April 2026
Orbit: 266 x 267 km, 97.3° (Epoch: 18 April)

Event Time Altitude Azimuth Distance (km) Brightness Sun altitude
Rises 04:08:14 0° 10° (N) 1,915 5.8 -20.0°
Reaches altitude 10° 04:10:03 10° 10° (N) 1,098 4.5 -20.3°
Enters shadow 04:10:18 12° 9° (N) 989 4.3 -20.3°
